Retour au catalogue

BREEZE-M DEB

ActifHEO
NORAD 34224·DEBRIS·🇷🇺 Russia

Lancé Feb 28, 2006 depuis Baikonur Cosmodrome

Loading…

Prochains Passages (prochaines 24 heures)

TLE

FraisSource: Space-Track

Époque: Sep 8, 2026, 04:33 UTC

1 34224U 06006AP  26251.19015639 -.00000040  00000-0 -78939-4 0  9993
2 34224  52.1154 201.1961 4967212 222.0761  86.7844  5.38848136  8164

Suivez BREEZE-M DEB en temps réel avec AllMySat

Download on the App Store